Temp
7 7 7 7 7 7 7 7 7 7 7 7 7 7 7 7 8 8 8 8 8 8 8 8 8 9 9 8 9 10 10 11 13 14 16 19 20 19 18 18 19 19 19 19 19 20 21 22 22 22 23 24 24 25 25 25 25 25 25 25 24 26 27 27 28 27 27 28 28 28 28 28 28 29 29 30 30 29 29 28 27 27 27 27 26 25 23 22
7 7 7 7 7 7 7 7 7 7 7 7 7 7 7 7 7 8 8 8 8 8 9 9 9 10 10 10 10 10 10 11 13 17 18 19 19 18 18 18 18 19 19 20 21 22 22 23 23 23 24 24 24 25 24 25 25 25 26 25 26 28 27 27 27 27 27 27 27 28 28 28 28 29 29 29 30 30 29 28 28 27 26 26 25 23 22 21
6 6 7 7 7 7 7 7 7 7 7 7 7 7 7 7 7 7 7 8 8 8 9 9 9 11 11 11 11 11 11 13 17 20 20 19 19 18 18 18 18 19 19 21 22 23 24 23 23 24 24 24 25 24 24 25 24 25 26 25 27 28 26 26 27 26 27 27 27 27 28 28 29 29 29 29 29 30 30 29 29 27 25 25 25 24 22 21
6 6 7 6 7 7 7 7 7 7 7 7 7 7 7 7 7 7 7 7 8 8 9 10 10 11 13 12 12 11 11 16 21 22 20 19 20 19 18 18 18 18 19 21 22 23 24 24 24 24 24 24 24 24 24 24 25 26 25 26 27 27 26 26 26 26 27 27 27 27 28 28 29 29 29 29 29 30 30 29 29 26 24 24 24 24 23 22
6 7 7 6 6 7 7 7 7 7 7 7 7 7 7 7 7 7 7 7 7 9 10 11 12 13 13 14 13 11 13 20 22 21 20 20 20 19 18 19 18 18 19 20 22 23 23 24 24 24 24 25 24 24 25 25 25 25 25 26 26 25 26 26 26 26 26 27 27 27 27 28 28 29 29 29 29 30 30 29 28 27 25 25 24 23 23 23
6 6 6 6 6 6 6 6 6 7 7 7 7 7 7 7 7 7 7 7 7 8 10 11 13 14 14 15 14 12 16 22 22 21 20 20 20 19 19 19 18 18 19 21 22 23 23 23 23 23 24 25 24 24 25 25 25 25 25 26 26 25 26 26 26 26 26 26 26 27 28 28 28 28 29 29 29 30 29 28 28 28 26 25 24 23 23 22
6 6 6 6 6 6 6 6 6 7 7 7 7 7 7 7 7 7 7 7 7 8 9 11 13 14 15 15 14 14 18 22 21 20 20 19 20 19 18 18 18 18 20 22 22 23 23 23 23 24 24 24 24 25 25 25 25 24 25 26 26 26 25 26 26 26 26 26 26 27 27 27 27 28 29 29 29 29 28 28 28 27 26 25 23 22 22 22
6 6 6 6 6 6 6 6 6 6 7 7 7 7 7 7 7 7 8 8 7 8 9 11 13 14 14 14 16 19 22 22 20 19 19 19 19 18 18 17 18 20 21 22 23 23 23 23 24 24 24 25 25 25 25 25 25 24 25 26 25 25 25 26 26 26 26 26 27 27 27 27 28 28 28 29 29 27 27 28 27 26 25 24 23 22 22 22
6 6 7 6 6 6 6 6 6 6 6 7 7 7 6 7 7 7 8 8 7 7 8 10 13 14 13 14 17 22 22 21 20 19 18 17 18 18 18 18 18 20 22 23 23 23 23 23 24 24 25 25 24 25 25 24 25 25 25 26 25 25 26 26 26 26 26 27 27 27 27 28 29 28 28 28 27 27 27 27 26 25 24 23 23 23 23 22
6 6 6 7 6 6 6 6 6 6 7 6 6 6 6 6 7 7 7 7 7 7 7 9 13 13 13 15 19 22 21 20 19 18 17 17 17 17 18 19 19 21 22 23 23 24 24 24 25 24 24 25 24 25 24 24 25 25 25 25 25 25 26 26 26 26 26 27 27 26 27 28 29 28 27 27 26 27 27 26 25 25 23 23 23 23 24 23
6 6 6 6 6 6 6 6 6 6 7 6 6 6 6 7 7 6 6 7 7 7 7 9 12 12 13 15 19 22 21 19 19 18 18 18 18 19 19 20 20 21 22 22 23 23 24 24 25 24 24 24 24 24 24 25 25 25 25 25 25 25 25 25 26 26 26 27 27 27 27 28 28 28 28 27 26 27 27 26 25 25 24 23 23 24 24 24
6 6 6 6 6 6 6 6 6 6 7 6 6 6 6 7 7 7 7 7 7 7 7 8 11 11 13 16 20 21 20 19 19 18 18 18 19 20 20 20 20 21 22 23 23 23 23 23 24 24 24 24 24 24 24 25 25 25 25 24 25 26 26 26 26 26 26 27 28 27 26 27 28 28 28 27 26 27 27 26 25 24 24 23 24 25 25 25
6 6 6 6 6 6 6 6 6 6 6 6 6 6 7 8 9 9 8 7 7 7 7 8 10 11 13 19 21 20 19 18 18 18 18 19 20 19 19 19 20 21 22 23 23 22 22 22 23 24 24 24 25 24 24 25 24 24 25 24 25 25 25 26 26 26 26 26 27 26 24 26 29 29 27 27 26 27 27 26 25 24 23 24 25 25 25 25
6 6 6 6 6 6 6 6 6 6 6 6 6 6 7 9 10 11 9 7 7 7 7 8 9 11 15 20 21 19 19 18 17 18 19 19 20 20 19 19 20 20 21 21 22 22 21 22 23 24 24 24 25 24 24 24 24 25 25 24 25 24 24 26 26 26 27 26 27 26 23 26 30 28 27 27 26 27 27 26 25 24 23 24 24 25 25 25
6 6 6 6 6 6 6 5 6 6 6 6 6 6 9 10 10 10 9 8 8 7 7 8 10 12 17 21 20 18 18 18 18 19 19 19 20 21 20 19 19 20 20 21 21 21 21 22 22 23 24 24 24 24 24 25 25 25 24 23 24 24 24 26 26 26 26 26 27 26 24 26 30 28 27 26 26 27 27 27 25 23 23 23 24 25 25 25
6 6 6 5 5 6 6 5 6 6 6 6 6 7 9 9 8 9 9 9 8 7 8 11 11 13 18 21 19 17 18 19 19 20 19 19 20 22 21 20 20 20 20 20 21 21 21 22 23 23 24 23 23 24 24 24 24 25 24 22 23 23 24 25 26 26 26 26 27 26 25 27 29 28 27 26 26 27 27 27 26 24 23 23 23 24 25 25
5 5 5 5 5 5 5 6 5 6 6 5 7 9 9 8 7 8 8 8 9 8 10 13 13 13 18 20 19 19 20 20 20 20 19 19 20 21 21 21 21 21 21 21 21 21 22 22 23 23 23 23 24 25 23 21 22 23 24 23 23 24 23 24 25 26 26 26 26 27 26 27 29 28 27 26 26 26 27 27 26 25 24 23 23 24 24 25
5 5 5 5 5 5 5 5 5 6 6 6 8 9 9 8 7 8 9 9 9 10 11 12 13 16 19 20 20 21 22 21 20 20 20 19 20 21 21 22 22 21 21 21 21 22 22 22 23 23 23 23 24 24 22 21 22 23 23 23 23 23 23 23 24 26 26 26 26 26 26 27 28 29 27 26 26 26 27 27 26 26 25 24 23 23 24 25
5 5 5 5 5 5 5 5 5 6 6 7 8 9 9 8 8 9 10 10 12 15 16 15 15 19 20 20 21 21 21 20 20 20 20 19 20 21 22 22 22 22 22 21 22 22 22 22 22 22 22 23 23 24 24 24 24 24 24 23 23 23 23 24 25 26 26 25 26 26 26 27 28 28 28 27 26 26 26 27 26 26 26 25 24 23 24 24
5 5 5 5 5 5 5 5 5 6 6 7 8 9 11 12 13 14 12 12 14 18 20 19 19 21 20 20 22 21 21 21 21 21 21 20 21 21 22 22 22 22 22 22 22 22 22 22 21 22 23 24 24 24 25 24 24 24 24 23 23 23 23 25 25 25 26 24 25 26 26 27 28 28 28 27 26 26 26 26 26 26 26 26 25 24 24 24
5 5 5 5 5 5 5 5 5 6 7 6 7 11 15 16 17 16 15 15 17 19 19 19 20 20 20 21 21 21 21 21 22 22 21 20 22 22 22 22 21 21 22 23 22 22 22 21 22 24 24 25 24 24 24 23 23 23 23 23 23 23 24 25 25 25 26 23 24 26 26 26 27 28 28 27 26 26 26 26 26 26 26 26 26 26 25 24
5 5 5 5 5 5 5 5 6 7 7 7 9 13 16 15 14 14 14 17 19 19 19 19 19 19 20 20 19 19 20 20 21 22 21 21 22 22 22 22 21 22 22 22 21 21 21 21 23 25 24 24 23 23 23 22 23 23 23 23 22 24 24 24 24 25 25 24 24 26 25 26 27 28 28 27 26 27 27 27 26 27 27 27 26 26 25 24
5 5 5 5 5 5 5 5 6 7 7 8 11 14 15 13 12 13 14 15 18 19 19 18 18 18 19 19 19 18 19 20 21 22 21 21 22 22 22 22 22 23 22 21 22 21 21 22 24 24 23 22 22 22 22 22 22 23 23 22 22 24 23 22 23 25 25 24 24 25 24 25 27 27 27 27 27 27 27 27 27 27 27 27 27 26 25 24
5 5 5 5 5 5 6 6 7 8 8 9 11 13 13 12 12 13 14 16 18 19 19 18 18 19 19 19 19 18 19 21 21 22 22 21 22 23 22 22 22 22 22 22 22 22 22 23 24 23 22 22 22 22 22 22 22 23 23 22 22 24 23 22 24 24 24 24 24 24 22 23 26 26 27 27 26 25 26 26 26 26 27 27 27 26 26 25
5 5 5 5 5 5 6 7 9 9 8 11 12 11 11 11 12 12 14 17 19 19 18 18 18 19 19 19 18 19 20 21 22 23 23 22 23 22 22 23 23 22 22 22 22 23 23 23 23 22 22 23 22 22 22 22 22 22 23 23 23 24 23 23 24 23 22 22 24 24 21 22 25 26 27 27 26 26 26 25 26 26 26 26 26 26 25 25
5 5 5 5 4 5 8 10 10 8 10 13 13 11 11 11 11 11 14 18 20 20 19 18 19 19 19 19 19 20 20 20 22 23 23 23 24 23 23 23 23 23 23 23 22 23 23 22 22 22 22 22 22 22 23 23 22 22 23 24 24 24 24 23 24 22 21 22 23 24 22 21 24 25 27 28 27 27 26 25 25 26 26 26 26 26 25 25
4 4 4 5 4 5 9 11 9 9 13 13 11 11 11 11 11 11 14 18 19 20 20 19 19 19 19 20 20 20 20 20 22 22 23 23 24 24 23 22 22 22 23 23 21 22 23 22 22 22 22 22 22 22 23 23 22 22 24 24 24 24 24 23 23 22 22 23 23 24 23 21 21 24 27 28 27 27 26 25 25 25 26 26 26 25 25 25
4 4 4 5 4 4 7 8 8 11 13 12 10 11 11 11 11 13 16 18 19 20 20 20 19 19 20 20 20 20 20 21 21 21 23 23 23 23 22 22 23 22 23 22 20 22 23 21 21 21 21 22 22 23 24 23 22 23 24 24 24 24 24 24 23 22 23 23 21 22 23 21 21 24 27 27 26 26 25 24 24 24 25 25 25 25 25 24
4 4 4 4 4 5 5 6 8 11 11 10 10 10 10 11 12 15 17 18 19 20 21 20 19 19 20 19 19 20 20 21 21 21 22 23 23 23 22 23 24 23 22 22 22 22 22 22 22 22 22 22 23 24 24 23 23 24 24 23 24 24 24 24 23 23 22 21 20 22 22 21 21 23 25 25 25 24 24 23 24 24 24 24 24 24 23 23
4 4 4 4 5 6 6 6 8 9 9 10 10 9 10 12 14 16 16 17 19 20 20 20 20 20 20 20 20 20 20 21 21 21 21 22 22 22 22 23 24 23 22 22 23 23 22 22 22 22 23 23 24 24 24 24 24 24 23 23 23 23 24 23 23 23 21 20 21 22 22 22 21 22 23 23 22 22 23 23 23 23 23 23 23 23 22 22
4 4 4 4 6 7 8 10 10 9 9 9 9 10 12 14 16 17 17 18 19 20 20 20 20 21 20 20 21 20 20 21 21 21 21 21 21 22 22 22 22 22 21 21 22 22 22 22 22 23 23 24 24 23 23 24 24 23 23 23 22 22 22 22 22 22 20 20 21 22 23 22 21 22 22 22 21 22 22 23 23 23 23 23 22 21 21 21
4 4 4 4 5 5 7 11 10 8 9 8 9 12 14 16 17 17 18 19 19 19 20 20 20 21 20 20 21 21 21 21 21 21 21 21 21 21 22 22 21 21 20 20 21 21 22 22 23 23 23 23 23 23 22 23 23 23 23 22 21 21 21 20 21 21 20 21 22 23 23 22 21 22 22 22 21 21 21 22 22 23 23 23 21 21 20 20
4 4 4 5 5 5 7 9 8 8 8 8 11 15 16 16 16 17 19 19 18 19 19 19 20 20 20 21 21 21 21 21 21 22 22 22 21 21 22 23 23 22 21 21 21 21 21 22 23 23 23 23 23 22 22 22 22 22 22 21 21 20 20 20 20 20 21 21 22 23 22 21 22 22 21 21 21 20 21 22 22 22 22 22 21 20 20 19
4 4 5 5 5 6 6 7 7 7 8 9 13 16 15 15 17 17 18 19 18 19 19 19 19 20 21 21 21 21 21 21 22 22 22 22 21 21 22 22 23 23 22 21 21 21 20 21 22 22 23 23 23 23 23 24 23 23 24 23 21 21 21 20 20 21 21 21 21 22 21 21 21 21 21 21 20 20 21 21 21 21 21 20 19 19 19 19
5 5 5 6 6 7 7 7 7 7 8 12 15 16 15 16 17 18 18 19 18 18 19 20 19 20 21 21 21 21 21 21 22 22 22 22 21 21 22 22 22 23 22 21 21 21 20 21 23 24 23 24 23 23 25 24 23 24 25 24 22 22 22 21 20 21 20 21 21 21 21 22 22 21 21 21 20 20 20 20 20 20 20 19 19 18 18 19
6 7 7 7 8 8 7 6 7 7 10 14 16 16 16 17 17 18 17 17 17 17 19 20 20 20 21 21 21 21 21 21 21 22 22 22 22 22 22 23 23 23 23 22 21 21 20 21 24 24 23 24 24 24 25 24 23 23 23 22 23 25 24 21 20 20 20 20 21 21 21 22 22 21 22 21 20 19 19 19 19 19 19 18 18 18 18 19
7 9 10 10 9 8 7 7 7 8 11 15 16 16 17 17 17 17 17 17 17 17 18 19 19 19 20 20 21 21 21 21 21 21 21 22 22 22 23 23 23 23 23 23 22 22 21 21 23 23 22 23 24 24 25 25 24 23 22 23 25 25 24 22 20 20 20 20 21 21 21 21 21 21 21 21 19 19 19 19 18 18 18 18 18 18 18 18
7 9 12 12 10 8 7 7 8 10 13 16 15 15 16 17 16 17 17 17 17 17 18 18 19 19 19 20 20 21 21 21 21 21 21 21 21 22 22 23 23 23 24 24 22 22 22 21 22 24 23 23 24 23 23 24 25 24 23 25 24 22 21 22 21 20 21 20 21 21 21 21 21 20 20 20 19 19 19 19 18 18 18 18 18 18 18 17
7 11 13 11 10 10 8 8 10 13 15 15 16 16 16 16 16 16 17 17 17 17 17 18 18 18 19 19 20 20 20 20 20 21 21 21 21 21 22 22 22 22 23 24 23 22 22 21 21 23 24 23 23 22 22 22 24 24 23 24 24 22 22 22 21 21 21 20 21 21 21 21 20 20 20 19 19 19 19 19 19 18 18 18 18 18 18 18
10 13 14 11 10 11 10 9 12 15 16 16 16 16 16 16 17 17 17 17 17 17 17 18 18 18 18 19 19 20 20 20 20 20 21 21 20 20 21 22 22 22 22 23 23 22 22 21 20 22 23 22 22 22 23 23 23 23 22 22 23 23 23 22 22 22 21 21 21 21 21 20 19 20 19 18 18 18 18 18 17 17 17 17 17 18 18 18
12 14 13 10 10 10 10 11 14 16 16 16 16 16 16 16 16 17 17 16 17 17 17 17 17 18 18 18 19 19 20 20 20 20 20 21 21 20 20 21 21 22 21 21 22 22 21 21 20 21 22 21 22 23 23 23 24 23 23 23 23 23 22 21 21 22 22 21 21 21 21 19 18 19 19 18 17 18 18 17 16 16 16 17 17 16 16 16
13 14 12 10 10 10 11 14 15 15 16 16 15 16 15 15 16 16 17 16 16 17 17 17 17 17 17 18 19 19 19 20 20 20 20 21 21 20 19 19 20 22 21 21 22 22 21 21 21 21 21 22 22 22 22 22 23 23 23 24 24 24 22 21 20 21 21 21 21 21 21 19 17 18 18 17 17 16 16 17 16 15 16 15 15 15 15 15
14 14 11 10 10 11 13 15 15 15 16 15 15 15 15 15 16 16 16 16 16 17 17 17 17 17 17 18 18 18 19 19 20 20 20 21 20 19 19 18 19 20 21 21 21 21 20 21 20 20 22 23 22 22 22 22 22 23 23 23 23 23 23 22 22 21 21 21 21 21 21 19 16 17 17 15 15 14 14 15 15 14 14 14 14 14 14 14
15 14 13 11 10 11 14 15 15 15 15 15 15 15 15 15 15 16 16 16 16 16 16 17 17 17 17 18 18 18 18 18 19 20 20 20 19 18 19 19 18 20 21 20 21 20 20 20 20 20 20 21 21 21 21 21 22 22 22 21 21 22 23 22 22 22 21 21 21 21 20 18 16 16 15 14 14 13 13 13 13 13 13 13 13 14 14 14
15 14 14 13 12 13 14 15 15 15 14 14 14 14 15 15 15 15 15 16 16 16 16 16 17 17 17 17 17 18 19 18 18 19 19 20 19 18 19 19 19 19 19 18 20 20 19 20 20 20 20 20 20 20 20 21 22 21 21 20 20 21 21 21 21 21 21 21 21 21 20 17 15 15 14 14 14 13 12 12 12 12 12 12 13 13 13 13
15 14 14 14 14 15 15 14 15 15 14 14 14 14 14 15 15 15 15 15 16 16 16 16 17 17 17 17 17 18 18 18 18 19 19 19 19 18 18 19 18 18 17 17 19 19 19 19 19 18 19 19 19 19 19 20 21 21 20 19 19 19 19 20 21 21 21 21 21 21 20 17 15 15 14 13 13 13 12 12 12 12 12 12 12 12 12 12
15 15 14 14 14 14 15 15 15 15 14 14 14 14 14 15 15 15 15 15 16 16 16 16 17 16 16 16 17 17 18 18 18 18 18 18 18 17 18 18 17 16 16 17 18 18 18 18 17 16 17 17 18 19 18 19 20 20 19 19 18 18 18 19 21 20 21 21 20 21 21 18 16 14 13 13 13 12 12 12 12 12 12 12 12 11 11 12
14 15 15 14 14 15 15 15 14 14 14 14 14 14 14 15 15 15 15 15 16 16 16 16 16 16 16 16 16 16 17 17 17 17 17 18 18 17 17 18 16 15 16 18 18 17 18 18 15 14 16 16 17 18 18 19 19 18 18 18 18 18 18 19 19 19 20 20 20 20 21 18 16 14 13 12 12 12 11 11 11 11 11 11 11 11 11 11
14 15 14 14 14 15 14 13 14 14 14 14 14 14 14 14 14 15 15 15 15 16 16 15 15 16 16 16 16 16 16 16 15 16 16 16 17 17 17 16 15 15 16 16 15 16 17 17 14 14 14 14 15 17 18 18 18 17 17 17 17 18 17 18 18 18 19 20 21 20 18 15 13 12 11 11 11 11 11 11 11 11 11 10 10 11 10 10
15 15 14 14 14 14 13 13 14 14 14 14 14 14 14 14 14 14 15 15 14 15 15 15 15 16 16 16 16 15 14 14 14 14 15 15 16 17 16 15 15 15 14 13 13 14 16 16 15 16 15 13 14 15 17 18 18 17 16 16 16 17 17 16 16 17 19 20 19 18 15 12 11 11 11 10 11 11 10 10 10 10 10 10 10 10 10 10
14 14 14 15 15 13 13 14 14 15 15 14 14 14 14 14 14 14 15 15 15 14 15 15 15 15 15 15 15 15 15 15 14 15 15 15 15 16 16 16 16 15 14 13 13 13 15 14 14 16 16 14 14 15 16 17 17 17 15 13 14 15 15 15 14 14 17 18 17 16 15 12 11 11 10 10 10 10 10 9 9 9 9 9 9 9 9 10
13 13 14 15 14 12 13 14 14 15 14 13 13 13 13 14 14 14 14 14 15 15 15 15 14 15 15 15 15 15 15 15 15 15 15 15 16 15 15 15 16 16 15 14 14 14 15 15 14 15 16 15 14 15 15 16 16 16 13 11 11 13 14 14 13 13 14 16 16 17 15 12 10 10 10 9 9 9 8 8 8 8 8 8 8 8 8 9
Height
812 811 811 810 809 809 808 807 806 805 804 803 802 801 800 800 799 798 796 795 794 793 792 791 791 790 789 788 786 785 783 783 783 783 781 777 775 775 774 775 775 776 778 780 782 782 782 783 783 785 784 783 783 781 783 782 781 784 786 787 782 775 771 771 773 773 774 774 773 771 768 771 770 763 757 754 754 755 756 756 756 756 758 760 761 763 767 772
811 810 810 809 809 808 808 807 806 804 803 802 801 801 800 799 798 797 796 794 793 791 790 790 789 789 788 787 785 784 783 782 781 779 777 775 774 774 773 773 774 776 777 779 779 778 779 780 781 783 781 782 782 781 784 782 782 784 782 784 777 770 772 772 773 774 776 777 775 771 769 770 769 764 760 760 759 754 756 757 756 760 762 762 764 767 771 772
810 810 809 809 808 808 807 806 805 804 802 802 801 800 799 798 796 795 794 793 792 790 789 789 788 788 787 786 785 783 783 782 779 775 773 773 772 772 772 772 773 775 776 778 778 777 777 778 780 780 780 781 781 782 784 782 783 781 780 783 774 770 775 774 775 776 776 775 776 773 769 768 765 762 761 763 761 755 756 757 756 763 767 766 766 767 769 771
809 809 808 808 808 807 806 805 804 803 802 801 800 798 797 796 795 794 793 792 791 790 788 788 787 787 786 785 784 783 784 781 774 771 771 772 771 770 770 771 772 774 776 777 778 778 777 778 779 779 779 781 781 782 783 781 781 779 779 780 772 773 777 775 776 776 775 774 775 774 770 768 763 761 761 762 762 756 755 756 757 763 767 766 766 766 768 770
809 808 808 807 807 806 805 804 803 802 801 800 798 797 796 795 794 793 792 791 790 789 788 787 786 785 785 784 783 783 784 778 770 769 771 770 769 768 769 770 772 774 776 777 778 778 778 778 778 779 780 780 782 783 781 778 777 779 779 776 774 777 777 775 775 775 775 774 774 773 771 769 764 762 760 761 765 759 754 756 755 757 761 763 765 767 768 770
808 807 807 807 806 806 804 804 802 801 800 798 797 796 795 794 794 793 791 790 789 788 787 786 785 785 784 783 783 783 782 774 768 770 769 768 768 767 768 770 772 774 776 777 777 778 778 778 779 781 780 779 781 781 779 776 777 781 777 773 775 777 777 775 774 774 774 774 775 773 769 767 767 764 758 760 762 756 753 754 753 754 757 760 764 768 769 770
807 807 806 806 806 805 804 803 801 800 798 797 796 795 794 793 793 792 790 789 788 787 786 785 785 784 784 783 782 781 778 771 768 769 768 767 767 767 769 771 773 775 776 776 776 777 777 778 779 778 778 779 780 778 777 776 777 781 777 773 775 776 777 776 774 774 773 775 773 769 768 769 769 765 759 759 757 754 753 751 752 754 757 761 765 768 769 771
807 806 806 806 805 804 803 802 801 799 798 796 794 793 793 792 791 790 789 788 787 787 786 785 784 784 783 782 781 776 771 769 769 769 767 767 767 768 770 772 774 775 775 775 775 775 776 778 777 775 777 777 777 777 777 778 778 780 778 775 775 776 776 774 773 773 773 773 770 768 771 769 765 763 761 760 756 755 754 752 753 756 759 764 767 768 770 771
806 806 806 805 804 803 802 801 800 799 797 795 793 792 791 791 790 789 788 787 786 786 785 784 784 783 783 782 779 772 767 768 769 768 767 768 769 770 772 773 775 775 775 775 774 775 775 776 774 774 776 774 776 776 777 780 778 776 776 774 775 776 774 773 773 773 772 770 769 770 771 766 760 762 763 758 757 756 754 755 756 759 764 766 768 769 769 771
806 805 805 804 803 802 801 800 799 797 796 794 792 791 790 789 789 788 787 786 786 785 784 784 783 783 783 782 778 770 767 769 770 769 769 769 770 771 773 774 775 775 775 775 775 774 774 774 772 773 775 774 775 776 776 778 774 772 774 774 775 776 773 773 773 772 771 769 768 771 771 764 759 763 766 759 757 756 756 759 759 762 767 767 768 768 768 770
805 805 804 803 802 801 800 799 798 796 795 793 791 790 789 788 787 787 786 785 784 784 783 783 782 783 783 781 776 769 767 769 770 770 770 770 771 773 774 774 775 775 775 775 775 774 774 773 772 774 775 774 775 776 775 773 771 772 775 776 776 774 773 773 773 771 769 768 765 766 769 764 761 763 763 759 757 756 758 762 762 764 767 768 768 767 767 769
804 804 803 802 801 800 799 798 796 795 793 791 790 788 787 786 785 785 784 783 783 783 782 782 782 782 782 779 773 767 767 770 770 770 771 771 773 773 774 775 775 775 774 775 775 774 775 774 773 775 774 772 774 777 774 770 772 774 775 778 775 773 773 770 769 768 768 768 762 764 772 767 762 761 758 757 757 756 759 763 764 765 767 768 767 766 767 768
804 803 802 801 800 799 798 796 795 794 792 790 788 787 786 784 784 782 782 782 781 781 781 781 781 782 782 774 767 766 768 769 770 770 771 772 773 774 774 775 775 776 775 774 775 775 776 776 774 774 772 772 773 774 772 770 774 775 774 777 775 772 771 767 767 767 767 768 762 768 777 765 755 756 756 756 757 757 760 763 765 767 769 768 767 767 768 768
803 802 801 800 799 798 797 795 793 792 790 788 787 785 784 783 782 780 780 779 779 780 780 780 781 782 780 769 763 766 766 768 769 769 771 771 772 773 774 775 775 776 776 775 775 776 777 776 776 774 773 772 770 772 773 773 775 774 774 775 774 774 771 766 767 767 767 766 761 768 776 761 750 754 757 756 756 757 760 762 765 769 770 769 768 769 769 768
802 801 800 799 798 797 795 793 792 790 789 787 785 784 782 781 780 779 779 778 778 779 779 780 781 780 776 766 763 764 765 767 767 767 769 770 771 771 772 774 775 776 777 777 776 777 777 777 777 775 774 772 772 774 775 774 772 772 777 776 772 772 770 767 766 765 767 765 760 767 773 759 749 754 756 756 757 757 758 761 764 769 771 770 768 768 768 769
801 800 799 798 797 796 794 793 791 789 787 785 784 782 781 780 779 779 778 778 778 778 780 780 780 779 772 763 762 763 763 765 764 766 767 768 770 769 771 773 775 776 776 776 777 777 777 777 775 773 772 774 775 774 773 775 774 771 775 773 770 772 769 768 767 765 765 766 763 766 768 758 750 753 756 756 757 758 758 759 763 768 770 771 771 768 768 769
800 799 798 797 796 794 793 791 789 788 786 784 783 781 781 780 779 779 779 779 779 779 780 779 779 779 769 761 762 761 760 762 763 764 765 767 769 768 770 772 773 775 775 776 777 776 776 776 775 774 773 774 771 771 777 781 776 771 772 771 770 772 771 770 769 765 764 766 766 765 765 761 752 751 755 757 757 759 759 760 762 765 768 770 771 770 768 769
799 798 796 796 795 793 792 790 788 786 785 783 781 780 780 779 779 779 780 780 781 781 780 778 779 775 765 759 760 758 758 761 762 763 765 766 767 768 769 769 771 773 774 776 775 775 776 774 774 775 775 775 772 773 779 776 769 768 771 772 770 771 774 772 769 766 765 767 767 766 766 762 753 750 754 756 757 759 759 759 761 762 765 768 769 770 769 768
798 796 795 795 793 792 790 788 787 785 783 782 781 781 780 780 780 780 781 781 778 773 769 770 770 764 760 758 757 757 759 760 761 762 763 764 766 768 768 768 769 770 772 774 774 774 775 775 777 777 775 774 772 768 768 766 765 767 768 770 770 771 771 770 769 765 765 770 768 766 764 760 755 751 753 756 757 760 760 757 759 761 762 764 767 768 768 768
796 795 794 793 792 791 789 787 785 784 782 781 782 782 779 777 774 773 777 777 771 761 757 759 759 756 756 756 755 757 758 759 760 760 761 763 765 766 766 767 768 769 770 771 773 772 772 777 779 774 768 765 765 764 763 765 769 770 770 771 771 771 769 767 769 765 764 773 769 762 762 759 756 752 752 756 758 759 760 759 759 759 760 761 763 765 766 767
795 794 792 791 791 789 788 786 784 783 781 780 782 780 774 771 769 769 772 768 761 758 756 756 756 755 755 756 756 757 758 758 757 758 761 762 762 764 765 766 769 771 768 766 771 773 774 778 773 764 760 759 762 766 768 771 774 774 773 771 769 769 766 765 769 765 764 774 769 760 761 760 756 752 750 755 758 758 758 759 759 756 756 758 759 761 764 766
794 792 791 791 789 788 787 785 783 782 781 781 781 778 773 773 774 774 774 766 757 756 756 754 755 755 755 757 758 759 760 759 757 756 759 760 760 761 762 764 768 767 765 767 772 777 780 776 764 758 760 763 766 768 771 775 776 775 772 772 771 765 765 766 767 765 765 772 768 759 762 760 753 750 749 752 755 755 753 754 755 754 754 755 756 759 763 766
793 791 790 789 787 787 785 783 782 781 780 781 780 777 775 776 777 776 777 770 758 752 752 753 754 754 754 756 756 759 761 758 756 754 755 759 758 757 759 763 764 762 766 770 771 776 778 768 757 758 764 768 772 772 774 776 776 775 772 773 770 764 770 773 768 766 766 767 765 763 765 761 753 751 748 749 751 751 752 751 751 751 751 752 753 756 760 764
791 790 789 788 787 786 783 782 781 779 780 780 779 777 776 777 777 777 775 767 757 750 749 751 751 751 751 752 753 756 756 753 752 750 751 755 755 755 757 758 760 762 765 765 765 767 766 759 756 761 766 768 773 775 776 778 775 771 770 771 769 765 771 772 765 766 766 764 764 767 772 763 752 752 748 744 750 752 751 752 752 751 749 749 751 754 757 760
790 789 788 787 785 783 782 781 779 779 779 777 777 777 777 777 776 777 775 764 754 749 748 749 750 749 748 750 752 751 752 751 748 746 747 750 751 753 755 753 757 762 762 762 765 764 759 758 760 765 767 766 771 774 773 775 773 769 767 767 768 766 769 769 765 770 773 768 761 765 778 765 744 746 747 742 748 750 750 752 752 751 750 750 752 754 756 759
789 788 787 786 784 782 780 779 778 779 777 775 776 775 777 778 775 777 774 761 750 744 746 748 748 747 747 749 750 749 753 750 743 743 746 747 747 749 753 753 754 757 756 757 763 762 758 760 761 764 767 767 770 771 768 770 774 771 762 760 765 764 766 768 767 774 774 767 760 761 773 766 747 745 744 740 745 746 747 752 751 749 749 749 750 752 755 758
788 787 786 785 783 782 779 777 778 777 774 774 776 775 777 776 775 777 771 762 752 743 744 747 746 746 745 746 747 749 754 749 742 744 744 746 746 746 753 754 755 756 751 758 769 762 757 763 764 765 768 769 771 770 764 766 773 769 758 759 762 762 765 767 768 772 764 760 763 760 762 767 759 748 739 738 744 745 748 752 751 750 749 748 749 751 753 756
786 786 785 784 783 782 780 779 778 776 775 775 775 777 776 774 776 775 769 766 755 741 741 744 744 745 744 745 746 745 746 744 744 745 741 744 745 747 753 750 752 755 751 761 770 759 755 764 766 766 769 769 766 763 759 764 770 763 757 761 760 760 763 762 764 766 759 764 771 760 758 771 764 743 736 741 743 747 752 754 752 751 750 749 749 751 753 756
785 784 783 783 781 780 780 779 778 776 775 775 776 776 774 775 776 769 767 766 751 738 741 743 744 745 744 747 747 744 743 742 744 743 741 744 744 746 751 747 745 751 753 757 759 754 754 758 758 761 766 764 759 755 754 762 765 758 758 762 760 761 762 761 763 760 763 775 774 757 757 770 762 740 738 747 747 751 756 754 752 751 750 750 750 753 755 757
783 782 782 781 780 779 779 778 776 775 775 775 776 775 774 775 771 767 771 764 747 741 741 740 743 744 743 746 745 744 745 742 741 743 743 744 745 745 746 744 743 749 754 755 753 752 754 754 754 756 757 755 752 752 754 758 759 758 761 761 761 762 760 763 761 757 772 782 766 752 753 763 763 746 743 755 757 758 759 753 752 752 751 751 752 755 757 758
781 781 780 780 780 779 778 776 773 773 775 775 775 775 774 771 764 765 767 755 744 743 741 741 743 741 742 744 742 741 743 741 739 742 745 744 747 748 748 749 750 752 759 760 756 754 755 758 757 753 751 751 752 755 756 756 757 761 762 759 763 766 765 768 765 766 781 779 758 749 749 759 765 756 753 760 761 760 760 756 754 753 752 752 755 758 759 761
779 778 778 778 778 778 776 774 773 774 774 775 775 773 770 768 765 762 755 747 748 747 742 745 743 739 741 742 740 739 739 740 739 740 742 743 747 748 747 749 752 759 765 762 758 757 757 756 752 750 750 751 755 758 759 760 760 763 762 762 769 773 776 780 775 775 778 767 755 750 752 760 760 755 758 761 761 761 759 757 755 752 752 754 757 759 760 763
777 776 775 775 775 774 773 772 774 774 774 775 775 768 765 768 765 756 746 745 751 749 744 747 744 739 740 738 738 736 735 738 737 737 738 739 744 745 742 740 741 750 758 755 756 760 760 754 748 752 752 749 753 756 760 763 761 763 761 762 769 772 783 789 778 774 772 763 754 750 757 764 754 752 760 760 761 762 757 755 755 753 753 756 759 761 762 764
773 772 771 771 771 771 771 772 773 773 774 775 770 765 769 770 761 753 749 746 748 748 745 747 744 739 737 736 735 734 736 737 734 735 737 738 744 745 742 740 737 739 746 751 755 756 762 759 749 749 749 746 749 749 748 749 751 755 749 750 758 760 771 780 772 768 768 762 758 759 763 760 752 757 761 759 761 760 757 756 755 755 756 759 761 762 765 765
769 769 768 768 768 768 768 770 772 773 774 771 765 764 769 765 754 751 752 748 748 750 745 742 743 740 736 735 735 732 734 736 733 734 736 737 742 741 739 740 738 736 743 754 755 750 757 755 738 738 741 739 745 744 739 744 749 747 741 747 755 747 749 764 767 765 765 763 763 765 759 746 750 759 755 757 763 761 761 759 757 759 759 761 764 765 766 767
768 768 767 767 767 767 767 769 770 772 772 767 763 763 761 756 752 751 753 752 753 753 748 742 741 740 736 734 734 732 732 733 733 734 735 734 735 734 733 734 734 735 738 746 752 751 757 751 734 736 742 736 738 738 736 744 750 747 748 752 746 734 737 757 770 767 769 772 764 758 752 743 753 764 755 757 766 763 763 764 762 765 764 765 767 766 767 767
768 767 765 766 767 766 766 767 769 772 770 763 761 761 755 754 755 753 754 756 755 754 752 747 743 743 741 736 734 733 733 733 733 734 734 734 733 731 731 730 730 733 732 736 744 745 750 751 737 736 744 737 734 737 735 736 740 746 753 744 734 738 741 749 765 769 771 776 763 753 755 749 755 767 761 759 767 767 765 765 766 767 767 768 768 767 768 768
768 765 764 765 766 765 765 767 769 769 766 761 761 761 757 755 757 756 756 756 756 755 753 750 747 745 744 741 737 734 734 736 736 734 733 736 736 732 730 731 731 731 729 732 740 741 745 753 743 732 738 738 735 742 744 738 735 740 744 735 735 754 754 749 763 770 770 774 765 754 753 746 748 763 767 765 770 771 767 766 768 769 769 770 770 771 771 770
767 763 762 765 766 765 765 767 768 766 763 760 759 760 758 756 757 757 757 757 757 757 754 751 749 747 745 743 740 737 736 737 736 734 733 734 737 736 731 731 733 731 729 730 738 740 743 754 751 734 733 737 738 743 747 743 739 739 741 736 736 746 748 746 752 755 760 769 767 758 755 754 756 762 768 771 770 770 770 770 770 771 772 772 773 773 772 772
764 759 761 765 766 766 766 768 766 762 759 758 756 756 757 757 756 756 756 757 757 756 754 752 751 750 747 743 741 740 738 737 735 735 734 731 737 741 734 731 733 733 733 733 735 738 742 754 755 740 734 740 742 740 738 738 739 743 746 745 743 741 739 742 743 741 748 759 762 761 761 768 768 762 766 773 773 770 771 773 774 775 775 775 775 776 774 773
761 758 761 766 765 766 767 765 762 757 756 756 756 757 758 758 756 755 755 757 756 753 753 754 752 751 750 746 743 742 740 737 734 735 735 730 734 741 737 734 733 733 737 739 738 739 743 751 753 745 741 742 739 733 732 734 733 736 739 738 739 739 741 753 755 743 740 748 753 755 762 773 772 765 767 772 773 772 771 773 777 778 778 778 778 780 779 777
758 757 762 765 765 766 764 759 758 757 754 755 757 758 760 760 758 756 756 757 756 754 753 754 753 751 751 748 745 742 741 739 735 736 736 730 731 738 739 738 735 732 735 739 737 737 740 745 749 746 739 736 736 734 735 736 733 734 735 732 731 733 740 756 759 747 742 744 745 746 757 773 776 769 770 773 775 777 775 774 778 781 782 783 784 784 783 782
755 758 763 765 764 765 761 757 758 758 755 757 759 759 760 761 759 757 756 756 756 754 754 754 752 751 751 749 747 745 743 741 738 737 736 733 735 740 739 739 739 735 734 737 737 739 743 747 750 748 738 731 734 736 736 737 737 737 737 736 736 735 735 742 744 744 747 747 747 749 758 774 780 774 775 779 781 783 783 781 783 786 788 788 788 788 786 785
754 758 762 763 764 763 759 755 756 757 758 760 760 759 760 760 759 758 757 756 755 755 756 754 752 752 751 749 749 746 745 746 742 737 736 736 739 742 739 738 741 738 737 739 738 740 747 748 747 751 750 746 746 745 744 743 740 739 741 744 745 740 738 740 738 743 749 747 747 754 763 775 781 778 780 784 785 788 790 789 789 790 792 792 790 789 788 788
754 758 760 761 763 762 759 757 757 757 760 762 761 761 761 760 760 760 758 758 756 756 757 755 752 753 751 749 750 745 743 748 746 740 738 737 739 742 740 739 741 740 742 743 737 739 748 748 746 751 753 755 755 753 750 744 739 742 746 750 751 746 744 745 742 746 751 746 744 750 761 777 783 781 785 786 787 792 794 793 794 794 794 795 793 792 792 793
752 756 759 760 761 760 759 760 759 758 760 762 762 762 761 759 760 760 759 759 757 757 757 755 753 753 752 751 751 747 743 744 745 742 741 740 741 744 742 740 742 745 747 747 742 742 749 751 752 754 753 753 753 751 748 742 739 745 749 751 754 754 752 749 745 748 747 745 745 744 753 775 785 784 788 790 790 794 795 795 796 797 797 797 797 797 797 796
751 753 756 758 759 759 758 758 758 758 759 761 762 763 761 760 759 759 759 758 757 757 757 755 753 754 756 754 752 751 747 744 744 745 745 743 743 746 745 742 746 750 750 748 745 747 751 755 759 760 759 757 754 751 749 745 744 750 754 755 756 756 757 753 750 750 746 748 755 748 747 767 781 785 790 793 793 795 797 798 799 798 799 799 799 800 799 798
753 753 753 755 757 757 757 757 758 760 760 761 763 764 762 760 759 760 760 758 756 757 757 758 756 754 755 755 753 753 751 748 749 750 749 747 746 747 747 746 751 756 752 746 747 751 750 755 764 767 764 762 757 753 752 750 753 757 759 760 759 757 758 756 754 754 750 751 756 750 749 764 779 787 792 795 796 797 799 801 801 801 801 801 801 802 801 800
753 754 756 758 757 756 759 761 760 760 761 762 763 763 762 760 760 760 760 758 758 757 757 760 759 755 754 753 752 755 756 756 758 757 754 753 752 750 750 752 756 759 757 754 757 757 752 755 766 769 772 773 766 760 757 754 757 762 763 763 762 760 761 760 758 757 752 749 748 750 762 780 789 793 797 799 801 801 802 803 803 803 805 805 804 803 803 803
751 752 756 757 757 759 762 763 761 759 761 762 762 763 763 761 761 761 759 760 762 760 758 760 760 757 756 754 753 758 761 762 763 762 760 759 756 752 754 758 760 760 762 765 768 764 758 761 764 762 769 779 775 767 762 758 759 764 768 769 766 762 764 767 767 765 757 752 755 762 778 794 799 799 801 803 803 803 805 807 806 808 809 808 807 805 805 806
753 753 754 753 757 763 763 762 760 756 757 761 762 763 764 762 763 763 761 760 761 761 760 760 760 758 757 757 757 759 761 762 763 762 760 760 759 757 757 757 758 760 763 767 770 769 764 767 770 763 764 774 776 770 766 763 761 764 774 783 779 772 773 776 778 777 768 764 769 772 779 793 801 802 804 806 805 806 809 810 811 812 813 813 812 810 809 809
755 755 753 751 757 764 762 760 760 757 758 763 765 765 765 763 762 763 763 761 759 760 760 761 761 759 757 759 760 760 760 761 760 759 758 758 758 758 759 758 756 759 762 763 767 767 762 766 771 765 760 768 773 770 770 769 766 770 784 796 793 785 781 780 782 784 777 772 774 772 776 792 802 802 806 811 812 813 814 814 815 816 816 816 816 815 814 813
Wind_Speed
8 9 8 8 8 8 7 7 7 7 7 7 7 7 7 7 7 7 6 6 6 6 7 8 8 10 9 10 12 12 14 13 11 9 9 5 2 5 6 5 10 15 16 17 19 17 14 12 12 12 10 8 5 5 8 6 4 5 5 6 6 6 2 3 1 3 4 5 6 9 9 10 11 9 10 7 4 3 3 2 3 3 3 6 9 14 17 17
9 9 9 9 8 8 8 8 8 8 8 8 8 8 8 7 7 7 7 6 7 7 7 7 9 11 10 10 12 13 14 12 13 11 9 4 4 4 5 7 11 17 18 18 21 19 15 13 13 13 8 6 5 6 7 6 6 7 5 6 7 2 3 4 3 4 4 6 8 9 9 9 10 9 9 9 7 6 3 5 5 5 7 8 11 16 17 17
9 9 9 9 9 8 9 8 9 8 8 9 8 8 8 7 7 7 7 6 7 8 8 8 9 10 10 9 11 12 12 12 10 5 6 2 7 6 6 11 13 19 18 16 19 17 13 13 15 13 7 5 5 6 8 6 7 7 5 7 4 2 3 3 2 3 5 7 9 9 10 9 8 8 8 9 10 5 1 2 3 6 9 8 10 14 18 18
9 9 10 10 9 9 9 9 9 9 9 9 9 8 8 8 8 8 7 7 7 8 8 9 9 9 8 8 9 9 9 10 3 6 4 4 10 7 9 13 17 21 15 11 14 12 10 12 14 11 7 6 5 6 8 7 6 5 6 7 2 2 1 3 1 3 6 8 9 10 10 10 8 9 8 9 9 1 5 7 4 6 10 10 11 13 17 17
9 10 10 10 10 10 10 10 10 10 10 10 9 9 9 9 8 8 8 8 8 8 9 9 9 9 7 7 7 6 6 5 3 5 3 9 9 4 11 15 20 21 12 10 12 10 10 12 12 9 6 6 6 7 8 9 7 5 7 9 2 1 3 2 1 5 7 9 9 10 10 9 10 10 8 8 8 3 6 7 5 6 11 12 11 13 14 14
10 10 10 10 11 11 11 11 10 10 10 10 10 10 10 10 9 9 9 8 8 8 9 9 10 9 5 5 4 4 6 2 3 2 8 10 5 5 14 18 22 18 12 12 13 11 11 12 11 9 7 6 8 8 7 10 9 7 7 8 6 5 6 3 5 7 7 10 9 10 10 9 11 10 7 7 8 7 7 3 2 7 11 12 12 13 13 14
10 10 10 10 11 11 11 11 11 10 10 10 11 10 10 10 10 10 9 9 8 9 9 9 9 8 5 4 3 5 7 3 3 6 11 6 2 10 18 21 20 15 13 14 14 11 11 12 11 8 7 6 8 9 7 9 10 9 6 5 7 7 7 7 8 8 8 10 10 11 10 10 12 9 7 8 6 5 4 2 6 10 12 13 13 13 13 12
10 10 10 10 11 11 12 12 12 12 11 11 11 11 11 11 11 11 10 9 9 9 9 9 9 7 5 3 4 6 6 1 4 7 8 2 9 15 21 20 16 14 14 14 13 12 11 12 11 7 8 6 6 9 7 9 11 11 10 5 5 6 6 8 8 9 9 9 9 11 11 11 10 9 10 9 4 3 3 7 10 12 13 13 13 13 12 11
10 10 10 10 11 11 12 12 12 12 12 12 12 12 12 11 12 11 11 10 9 9 9 9 8 6 4 3 6 6 1 5 5 3 1 9 14 19 21 18 14 12 12 13 11 12 10 10 10 6 6 3 6 8 8 9 7 8 12 8 7 7 7 8 9 9 9 7 8 11 12 10 6 6 7 2 5 4 7 9 11 12 12 12 13 13 12 12
10 10 10 10 11 11 12 12 13 13 12 13 13 13 13 12 12 12 12 11 10 10 9 9 7 5 3 4 7 4 4 5 5 6 7 12 16 18 16 16 16 11 10 10 9 11 8 6 8 4 4 3 6 7 9 9 2 1 7 8 8 8 7 7 8 9 8 8 10 12 12 9 5 5 3 5 6 5 8 10 11 11 11 12 12 12 12 12
10 10 10 10 11 11 12 12 13 13 13 14 14 14 13 13 13 13 13 12 11 10 8 7 4 3 2 4 6 3 6 4 3 7 8 13 15 13 12 16 16 10 9 9 8 10 7 4 6 5 2 4 6 7 9 8 3 2 5 6 8 8 7 8 8 8 7 8 9 9 11 9 8 8 4 6 5 5 8 10 11 11 11 11 12 11 11 12
10 10 10 10 11 11 12 13 13 13 14 14 14 15 14 14 14 15 14 13 12 10 8 5 1 1 3 6 6 3 3 4 5 6 9 13 11 8 10 14 13 8 7 7 7 8 6 4 8 8 1 4 7 5 6 7 4 5 6 7 7 8 8 8 7 6 7 7 4 6 9 9 11 8 4 6 5 6 8 9 10 10 10 11 11 10 11 12
10 10 10 11 11 11 12 13 13 14 14 14 15 15 15 15 15 16 15 13 10 8 6 2 1 1 5 5 2 3 4 5 6 8 11 11 8 6 6 9 10 7 3 3 4 7 6 4 9 8 1 4 5 3 2 5 5 5 6 6 5 6 6 4 3 5 6 4 2 5 7 7 11 6 7 6 6 8 9 9 9 9 10 10 10 10 12 12
11 11 11 11 11 11 13 13 13 14 14 14 15 15 15 16 15 15 13 11 8 6 4 3 2 3 5 4 2 4 7 6 7 10 12 10 8 5 5 7 9 6 3 1 2 4 6 5 8 6 3 5 2 3 3 5 6 5 4 5 5 5 3 7 2 4 4 2 3 9 7 5 8 9 8 5 7 9 9 10 10 9 10 10 10 10 12 11
11 11 11 11 11 12 13 13 14 14 14 15 15 15 15 14 12 11 9 7 5 5 5 5 3 4 4 5 2 2 7 8 9 13 13 11 9 7 7 9 8 7 4 2 2 3 6 7 7 6 5 3 2 5 7 5 6 5 4 5 5 4 3 6 3 2 2 3 4 9 6 6 6 9 8 5 6 8 9 10 11 10 11 10 10 10 11 11
11 11 11 11 12 12 13 14 14 14 15 15 15 15 13 8 7 7 4 1 3 7 6 4 4 5 5 2 3 1 5 7 7 11 14 13 11 8 9 11 8 7 5 4 3 3 7 8 6 4 4 5 6 7 5 4 6 5 6 4 3 4 2 5 5 2 2 0 5 7 6 6 3 8 7 6 5 7 8 9 11 11 11 10 9 10 10 10
11 11 12 12 12 12 13 14 14 15 15 15 16 14 8 2 2 4 5 5 4 6 5 2 3 5 4 1 3 2 6 6 3 6 9 12 12 9 11 11 9 9 7 6 4 5 9 8 4 3 5 6 6 6 5 7 6 6 5 4 3 4 3 2 5 5 2 4 5 6 6 7 4 4 7 5 5 6 7 8 10 10 10 11 10 10 10 10
12 12 12 12 13 13 13 14 14 14 15 16 15 9 2 1 2 3 3 4 4 5 4 2 3 5 3 3 3 3 7 6 4 5 6 9 11 11 12 9 9 11 9 7 6 6 8 7 5 5 6 6 6 7 7 4 3 5 5 4 4 4 5 4 2 3 2 6 6 7 7 8 9 4 6 6 5 5 6 7 9 10 10 11 11 10 11 11
12 12 12 13 13 13 13 14 14 14 15 16 10 4 1 0 0 2 3 4 5 4 2 3 6 3 2 4 3 3 4 2 2 4 7 11 12 12 10 9 11 12 9 7 7 8 7 5 6 7 7 9 10 11 9 2 2 2 2 3 3 3 4 3 1 1 2 7 8 9 9 8 9 6 6 6 5 5 6 7 8 9 10 11 11 11 11 11
12 13 13 13 13 14 14 14 14 14 16 14 6 2 2 2 3 4 5 7 9 9 8 3 8 6 1 3 3 2 4 4 3 5 10 13 14 13 10 10 11 10 8 7 7 7 6 6 8 9 10 11 12 11 7 2 1 2 3 4 5 5 4 3 3 3 3 6 8 9 10 9 10 8 5 6 4 6 7 8 9 9 10 10 11 12 12 11
13 13 13 13 13 14 14 14 14 14 14 8 3 5 3 3 3 1 1 7 12 13 13 9 9 10 5 1 3 2 2 5 5 6 10 13 16 13 10 11 10 8 8 7 7 6 6 7 9 11 10 8 9 9 5 3 4 5 6 6 6 7 4 3 4 5 2 5 9 9 11 10 11 11 4 5 5 7 8 9 10 11 11 10 12 13 11 9
13 13 13 13 13 14 14 14 14 13 8 2 4 6 3 5 4 4 3 6 8 10 12 11 10 10 7 6 3 0 2 5 7 8 10 12 15 12 11 12 11 8 9 7 6 5 7 9 12 10 5 4 6 7 7 6 6 6 6 6 6 5 2 3 5 5 3 4 7 8 9 9 11 11 7 5 7 7 8 10 11 11 11 11 11 11 11 10
13 14 13 13 14 14 14 14 13 9 3 2 5 6 2 4 4 4 4 6 7 7 8 9 9 9 9 10 9 8 8 9 9 10 13 13 13 11 11 13 13 9 10 10 8 7 7 8 10 8 6 7 7 7 8 6 6 7 6 6 6 3 2 3 5 5 4 6 7 7 7 8 9 11 10 8 7 6 7 10 11 11 11 11 10 10 11 13
13 14 13 14 15 15 14 14 11 5 4 5 8 6 3 4 5 4 4 6 5 3 3 4 6 7 6 4 8 13 12 10 10 10 16 15 11 9 11 13 14 10 9 13 13 11 6 2 4 8 8 9 8 8 9 6 6 8 9 9 7 4 4 6 4 3 5 8 9 8 7 8 10 12 11 8 8 7 7 9 11 11 11 10 9 10 11 12
13 13 14 14 15 15 13 10 4 2 4 7 6 4 2 4 5 4 5 5 3 3 3 4 4 3 4 4 8 11 9 10 12 10 16 17 12 9 10 10 10 10 12 14 13 11 6 5 5 9 10 11 10 9 10 8 7 7 9 10 10 9 9 9 8 5 7 8 8 8 7 7 8 11 11 8 8 9 8 8 10 11 11 11 10 10 11 11
13 13 13 13 15 15 9 2 0 3 7 4 3 3 0 6 6 4 4 4 3 3 4 5 3 4 5 5 8 8 6 8 10 9 14 17 14 9 8 8 7 9 11 11 8 7 4 7 8 9 9 11 10 8 10 9 8 6 5 7 10 11 10 9 7 6 6 3 5 7 8 5 5 7 9 9 10 10 8 7 9 9 10 11 11 9 10 10
13 13 13 12 13 13 6 2 5 6 5 1 4 2 4 8 6 3 4 4 3 2 3 2 1 3 2 5 9 7 3 4 6 11 13 15 15 10 8 9 8 7 6 6 5 5 6 9 9 8 8 9 8 7 8 9 9 4 3 2 7 8 9 9 8 8 6 1 4 8 8 6 6 6 7 8 9 9 6 5 7 8 9 11 11 10 10 10
13 13 13 11 11 9 6 7 8 5 2 3 2 3 8 8 4 4 5 3 2 1 2 3 3 2 2 5 11 8 1 2 4 10 13 15 14 9 10 12 11 10 9 8 5 5 9 12 11 11 9 7 7 7 7 9 10 3 4 1 5 4 7 8 7 7 5 3 6 9 7 6 7 6 6 7 9 7 4 1 3 6 8 9 10 10 10 10
13 13 12 11 11 8 5 8 8 5 1 1 1 7 8 4 3 4 5 3 2 2 1 3 3 3 3 5 10 10 4 2 1 6 11 14 12 7 7 10 11 11 12 12 8 3 6 8 9 13 11 8 10 9 8 10 8 1 2 3 4 4 5 6 7 6 4 5 8 8 9 7 7 6 6 6 6 3 1 1 0 3 6 8 10 10 9 10
14 13 12 12 10 5 4 8 11 8 4 3 5 8 5 4 4 4 4 2 2 3 1 3 3 2 2 4 8 10 9 4 3 7 9 11 11 7 4 5 8 9 9 12 10 2 4 2 3 9 10 8 9 8 7 10 7 1 3 6 5 5 5 5 6 5 5 8 8 7 9 8 8 4 2 2 1 2 2 2 0 1 5 8 9 9 9 10
15 14 12 10 7 3 4 4 4 5 5 4 7 5 4 4 4 5 3 1 1 2 3 3 2 1 3 4 3 8 11 6 4 9 10 9 11 10 5 5 6 7 7 8 9 6 6 5 3 6 8 6 6 5 5 7 6 4 6 7 5 5 5 5 6 5 7 8 6 6 7 9 9 2 4 5 4 3 4 4 3 2 6 8 8 8 8 8
16 15 13 12 9 8 8 3 2 2 4 5 7 4 5 4 4 4 2 1 1 1 2 1 1 3 5 4 3 6 9 8 7 10 10 10 10 10 10 9 7 8 8 7 8 8 8 8 7 7 7 7 7 6 6 6 7 7 7 6 7 6 6 7 7 6 8 5 4 4 5 8 7 1 5 5 4 3 4 3 3 3 5 8 8 9 9 8
17 17 16 14 12 14 14 9 5 6 6 7 5 5 5 4 4 2 1 2 1 3 2 2 5 7 7 5 3 5 6 7 9 10 10 12 10 11 13 12 11 10 7 7 9 6 7 9 11 10 8 9 11 7 7 8 8 9 8 7 8 7 6 8 7 6 7 4 4 3 3 7 7 3 7 5 4 4 4 3 1 1 4 7 8 8 9 8
20 19 16 12 12 15 14 10 9 8 7 6 5 5 5 5 2 1 1 1 3 3 2 4 7 7 5 2 2 3 5 6 10 10 10 11 9 10 11 11 14 12 5 7 7 6 8 7 10 13 8 10 14 11 8 7 7 10 9 8 8 7 7 7 6 6 7 4 4 5 4 6 6 3 6 4 4 5 4 4 5 4 6 7 7 8 8 7
20 14 10 7 8 11 12 11 7 5 5 5 6 6 6 5 1 1 1 1 3 3 5 5 6 6 5 3 2 1 3 3 10 10 8 10 9 9 10 10 13 12 7 6 5 5 9 5 7 11 6 9 15 14 12 8 6 7 7 8 7 7 6 4 2 2 3 4 3 5 4 3 1 5 5 4 5 6 5 5 6 6 7 7 7 8 7 7
13 6 4 4 4 4 8 11 9 7 6 5 7 7 5 1 1 1 2 3 3 5 8 5 3 5 4 4 3 3 1 3 9 9 7 9 11 11 11 9 13 14 10 7 4 5 7 4 7 9 6 10 12 12 14 11 5 5 6 8 6 4 6 4 1 3 0 6 4 4 6 3 5 4 4 5 5 6 6 6 6 7 7 6 6 8 8 7
8 4 1 3 2 2 6 10 11 9 6 6 7 5 2 1 2 2 2 3 2 4 7 4 1 2 2 3 3 4 2 4 8 8 7 8 8 9 11 9 11 15 13 9 5 4 6 3 7 9 10 10 5 5 11 11 7 5 5 6 4 2 5 5 4 3 4 7 4 4 7 6 5 3 3 4 3 5 6 7 7 8 7 6 6 7 7 8
7 4 2 5 2 2 8 11 11 8 5 6 6 1 1 1 1 1 2 3 2 3 5 3 0 2 1 1 0 2 1 4 8 8 7 7 5 5 9 8 9 14 15 12 6 3 4 5 6 7 8 9 6 4 7 9 10 7 4 3 4 4 6 6 5 5 5 7 5 5 8 6 4 3 4 3 3 4 5 7 7 7 7 6 7 8 7 8
6 4 3 4 3 5 10 11 8 6 5 6 6 2 1 2 2 1 1 2 2 3 4 2 1 1 2 3 2 1 2 2 6 7 6 7 4 2 4 5 7 11 12 12 8 4 4 6 4 6 6 7 8 7 8 8 10 8 6 5 5 4 4 4 5 5 5 6 5 5 6 3 1 3 4 4 4 5 4 6 7 7 8 7 7 7 6 8
5 4 3 4 2 7 8 7 6 5 5 4 3 2 2 1 2 3 2 2 3 3 2 2 2 2 2 4 3 1 2 2 3 6 5 5 5 3 2 3 6 8 8 9 9 5 5 5 4 5 7 7 7 7 7 7 8 9 8 8 7 4 4 4 4 5 5 5 4 5 5 2 4 4 4 4 4 4 5 7 6 6 7 6 6 5 4 5
4 3 3 3 5 6 4 5 5 3 4 2 1 2 2 1 1 2 3 2 4 3 3 4 4 4 4 4 2 1 3 3 3 4 5 6 7 4 1 1 3 6 6 8 9 7 5 5 6 5 6 8 6 3 1 3 3 6 7 8 8 7 5 6 6 6 5 6 4 5 3 3 4 3 3 4 4 4 5 7 7 6 5 5 5 5 5 6
4 3 3 3 5 4 4 4 2 2 3 1 1 1 1 1 2 2 2 3 4 4 3 4 5 5 5 4 3 3 4 4 3 4 4 5 4 1 3 2 1 3 4 6 7 4 2 3 7 7 6 4 5 6 3 2 2 4 5 6 7 6 7 8 7 5 5 6 4 6 4 3 3 2 3 5 5 5 5 7 8 6 6 7 7 7 8 8
3 2 4 4 3 3 5 3 3 2 2 2 1 1 0 2 3 2 2 3 3 3 3 4 4 4 3 2 4 4 4 3 3 3 3 3 3 5 4 2 1 3 4 4 4 4 2 4 7 7 7 4 5 5 3 1 2 5 4 2 4 5 5 6 5 2 4 6 5 6 5 3 3 2 5 7 8 8 7 7 8 7 6 7 8 8 8 9
4 3 4 4 2 4 4 2 2 2 2 2 2 3 2 2 3 3 3 2 2 2 3 3 2 2 2 2 4 5 4 3 3 1 2 3 3 6 6 3 2 4 3 2 2 4 4 6 7 6 7 7 6 6 6 5 5 4 2 1 3 4 5 5 4 4 6 6 5 6 4 4 5 5 7 8 8 8 8 7 7 6 6 6 7 7 7 8
4 3 4 4 2 4 2 1 1 1 2 2 2 2 1 2 1 2 3 1 0 2 3 2 2 3 4 4 6 6 4 4 3 1 1 2 4 6 7 6 2 0 2 5 1 5 4 4 5 7 8 9 8 7 5 5 5 3 2 2 1 3 5 5 5 7 7 6 7 7 2 5 7 8 9 7 8 8 7 7 6 6 7 7 6 6 6 7
4 3 3 4 3 2 0 1 2 1 1 2 2 2 0 2 3 1 2 2 0 2 2 2 3 3 4 5 6 6 4 5 4 2 1 1 3 5 7 7 8 8 8 6 2 3 3 1 2 4 3 3 3 0 2 1 4 5 3 3 2 1 3 5 6 7 6 5 7 5 6 10 9 8 8 7 8 8 6 6 6 6 7 7 6 6 6 6
3 2 3 3 3 2 2 2 1 0 1 1 1 1 0 1 3 3 2 2 1 1 2 0 2 2 2 4 5 4 3 5 5 2 1 2 2 4 4 7 9 12 9 3 3 0 4 4 0 4 4 4 5 4 4 2 2 4 4 3 2 1 2 6 7 4 3 5 5 4 12 14 10 9 9 7 7 7 7 6 6 6 6 6 6 7 8 8
1 1 2 1 1 2 2 1 1 1 2 1 0 0 1 1 2 3 2 2 1 0 2 2 2 2 2 3 4 3 3 4 3 1 2 3 2 3 3 7 9 10 8 2 3 2 4 4 2 3 4 6 6 4 3 3 5 6 5 4 4 3 0 4 4 4 5 4 4 6 12 12 10 10 9 7 6 7 7 6 6 6 6 6 7 9 10 9
0 2 2 2 1 2 3 3 2 3 3 1 1 1 1 1 2 2 1 2 3 1 2 1 2 4 4 3 2 1 2 2 0 3 4 4 4 0 2 4 6 7 7 5 6 4 3 3 5 5 4 6 5 3 2 3 6 7 6 6 5 4 4 3 2 4 4 2 3 9 13 11 8 8 8 7 7 7 7 7 7 7 7 7 8 10 11 10
1 2 3 1 3 4 3 3 2 3 3 1 1 3 1 1 2 2 1 0 1 1 1 0 2 3 4 5 3 3 6 5 3 4 5 4 3 2 1 2 1 4 5 5 4 4 2 2 6 7 4 3 2 2 1 2 5 7 7 7 5 4 5 5 4 4 2 3 7 11 13 9 5 6 9 8 7 8 8 7 8 8 7 8 9 10 11 11
2 1 1 3 4 2 1 3 2 2 3 1 1 3 1 1 3 1 1 1 2 2 3 2 2 1 0 2 4 5 6 6 5 5 6 4 3 3 3 2 1 2 2 3 1 3 2 2 4 6 5 4 4 5 4 3 4 6 7 8 6 3 4 4 4 3 3 3 8 9 7 5 5 8 9 8 9 10 9 9 8 8 8 8 9 10 11 11
0 0 2 2 3 1 1 3 2 2 2 2 1 1 1 2 2 1 1 2 0 2 3 3 3 2 3 3 1 5 6 7 7 7 5 3 2 2 3 3 3 2 1 2 2 2 3 4 5 7 6 6 7 7 5 4 5 4 4 6 6 4 2 3 4 5 5 0 5 4 4 7 9 9 10 10 10 10 9 8 8 8 8 9 9 11 11 11
Wind_Direction
356 356 357 358 358 356 350 348 346 347 344 344 343 342 343 341 340 337 336 335 336 334 329 330 324 323 319 317 321 319 321 317 301 275 248 248 270 242 231 199 188 175 163 160 163 161 161 169 164 167 176 172 198 176 173 200 194 208 222 231 238 239 250 62 27 2 352 352 0 346 350 337 333 351 350 332 283 314 313 194 137 131 88 50 65 93 120 134
354 356 357 355 355 353 350 347 345 346 342 342 339 339 340 336 338 334 332 333 333 333 333 334 327 326 326 324 322 320 323 307 287 271 235 228 346 304 213 188 187 174 162 164 172 170 167 168 163 175 186 174 184 166 171 186 195 222 227 232 243 265 33 42 17 19 352 335 341 332 337 330 329 341 338 331 330 327 284 172 161 149 107 81 93 110 124 132
356 356 355 353 353 349 347 346 344 344 340 340 337 337 335 331 333 329 329 330 331 332 331 335 329 329 333 326 319 323 323 298 278 233 189 247 332 319 205 183 177 170 166 175 179 178 177 167 166 179 188 184 183 176 187 181 192 226 234 240 246 54 49 61 44 19 346 332 326 322 327 317 327 337 323 327 323 316 34 95 151 143 115 108 124 132 139 145
357 356 354 351 351 346 344 345 343 342 339 337 335 333 331 331 330 324 328 326 328 330 329 334 329 332 334 323 322 327 308 279 244 129 150 304 322 308 203 180 168 167 169 180 182 185 181 167 172 184 193 189 175 186 196 178 189 215 226 249 325 51 224 117 87 337 328 322 319 314 312 310 331 325 304 319 313 308 63 31 43 120 134 142 148 149 151 151
357 356 354 349 347 344 342 343 342 341 338 333 330 330 328 327 326 322 324 323 326 327 327 331 330 336 332 320 325 317 280 259 114 111 286 306 316 270 191 172 162 167 170 175 174 175 174 171 177 186 199 190 170 190 201 190 208 228 227 248 290 305 256 116 307 311 319 308 308 303 307 324 326 306 298 314 307 336 30 22 45 124 145 151 153 154 157 153
355 355 352 348 345 341 340 340 339 338 334 331 326 326 325 322 322 320 320 323 324 322 325 328 330 341 336 322 319 276 260 284 70 328 307 317 319 180 173 162 160 168 170 170 168 171 173 173 180 187 201 194 183 195 201 193 210 237 229 233 233 249 267 281 291 295 304 298 301 301 312 326 307 299 313 313 306 338 0 3 115 137 140 145 150 158 164 159
352 354 350 346 343 339 339 336 335 335 330 327 323 322 321 319 319 318 320 320 321 321 320 321 330 345 351 328 280 235 252 304 42 314 314 325 131 151 159 155 158 166 168 169 168 174 173 178 189 191 199 196 193 198 197 196 208 234 239 227 232 248 262 272 283 285 292 292 295 297 303 305 294 303 318 312 323 358 7 130 139 132 133 142 151 161 168 162
349 349 347 343 340 337 336 334 332 329 325 322 320 320 318 317 317 316 317 315 316 316 312 318 332 351 4 334 279 250 247 6 33 311 313 108 140 148 151 150 157 164 170 174 170 177 177 185 195 192 208 199 190 196 189 206 213 228 244 246 244 249 255 266 272 277 284 284 288 288 289 288 289 308 306 308 6 61 100 127 130 129 134 144 155 159 161 160
345 345 343 339 337 335 333 332 329 326 323 320 318 317 316 317 315 313 312 310 310 309 310 316 331 360 3 308 280 275 153 73 38 354 95 135 145 151 152 155 165 167 173 178 177 186 183 194 197 194 237 204 180 196 188 212 216 217 236 246 253 258 261 268 272 276 279 277 282 283 282 281 292 314 293 311 72 104 124 126 128 131 140 148 156 159 158 160
341 340 338 336 333 331 331 330 326 324 321 318 318 316 317 315 311 310 308 305 303 303 306 310 331 14 338 279 269 274 94 88 58 75 126 145 144 151 162 168 170 173 177 178 191 196 193 212 197 194 276 217 188 197 191 214 242 179 235 249 259 267 269 271 274 274 276 271 268 271 278 281 288 288 258 105 101 141 132 130 134 137 146 151 156 161 164 166
337 337 335 333 331 330 330 327 324 323 319 319 318 316 315 312 308 307 304 301 297 294 297 301 329 30 283 269 266 276 87 119 112 88 130 146 143 150 164 169 172 180 176 176 198 199 203 225 189 194 250 174 181 192 197 218 272 272 250 257 253 258 257 251 259 262 265 264 257 262 276 277 263 255 236 99 116 159 140 138 142 144 149 153 157 159 163 166
334 334 332 329 328 328 326 324 322 320 319 319 317 318 315 311 308 305 302 297 291 285 282 284 320 34 260 255 255 250 102 148 160 120 136 149 148 142 151 169 179 185 176 182 200 196 209 217 195 204 196 159 175 180 197 208 247 255 249 259 245 243 243 232 244 256 253 260 268 267 270 253 234 229 152 114 143 164 154 147 146 148 151 156 158 156 159 162
331 331 330 328 326 325 324 323 322 320 320 319 318 319 315 312 308 304 301 291 284 273 261 251 126 237 254 261 234 198 182 164 169 155 152 158 152 141 157 182 192 200 208 200 183 190 207 212 208 212 226 214 182 111 162 193 231 245 225 247 252 237 224 184 213 244 235 245 263 249 258 227 204 172 109 129 162 170 164 152 153 154 155 164 163 160 162 163
329 329 328 325 324 323 323 322 321 320 318 319 318 318 316 314 309 305 301 286 271 250 219 139 148 211 249 270 124 191 213 178 188 184 170 172 168 164 176 187 197 202 221 201 126 177 194 199 218 219 227 243 186 121 196 194 215 234 211 221 244 242 164 123 159 244 221 158 190 228 246 225 175 120 98 138 166 177 173 159 160 162 165 174 170 171 173 172
327 327 324 323 324 323 324 322 322 319 318 321 319 319 318 316 315 316 311 285 245 206 169 132 181 220 256 257 161 217 224 197 215 207 194 195 196 198 181 177 188 189 193 182 126 156 186 189 208 210 189 213 224 196 209 201 199 218 229 207 204 228 148 133 166 267 289 104 175 223 241 237 176 108 101 136 166 187 183 167 164 170 176 182 183 182 182 180
324 322 321 322 323 323 324 323 321 319 320 321 319 321 321 323 332 333 348 35 159 157 158 163 199 234 275 252 130 130 189 191 219 211 207 209 210 204 168 162 167 175 181 168 155 156 180 189 201 224 195 187 213 213 210 212 203 205 233 232 181 211 198 152 158 170 302 211 186 224 255 253 174 109 110 131 167 193 192 179 170 174 181 186 194 190 186 187
323 321 321 322 322 323 323 322 321 321 321 320 322 324 318 326 9 14 63 90 119 145 180 222 186 228 267 127 165 186 155 164 161 165 192 203 206 183 153 155 159 166 166 158 174 167 174 188 189 218 217 207 214 216 217 219 211 192 210 241 210 220 250 175 152 152 231 261 217 225 252 265 253 126 121 136 165 193 199 187 177 181 185 188 197 198 195 193
324 322 321 321 322 322 323 323 321 321 320 318 324 328 294 164 74 37 78 119 139 164 206 231 203 235 227 171 199 139 124 137 136 140 162 175 186 175 160 162 155 158 161 159 178 178 178 192 195 200 205 210 212 209 220 232 235 202 196 233 221 211 235 232 183 138 222 263 247 239 238 249 256 210 135 143 166 195 203 190 188 191 190 191 195 201 205 198
324 322 323 322 321 322 324 323 321 322 319 317 331 353 298 187 197 226 195 185 184 205 243 166 196 263 72 141 155 121 129 143 184 181 160 157 167 171 170 165 159 167 175 171 176 180 184 191 201 212 204 203 208 212 226 291 4 249 211 255 252 220 221 215 247 296 296 278 258 249 247 242 247 218 139 138 167 195 209 199 195 196 195 196 196 200 206 203
323 322 323 321 322 324 323 323 323 322 317 315 322 282 244 241 234 200 184 213 224 255 295 233 211 263 334 128 122 161 203 213 223 174 156 161 162 163 169 166 171 185 195 186 164 167 196 205 202 213 216 209 208 215 237 291 346 277 255 254 254 252 243 175 215 257 289 282 264 250 252 249 251 240 153 131 176 202 210 209 205 202 200 198 200 201 203 207
323 322 322 323 323 322 321 323 320 319 321 317 250 237 281 334 301 329 213 236 230 246 270 258 241 257 264 153 89 91 198 206 205 159 153 167 168 169 172 172 184 195 200 187 146 147 203 219 216 219 226 216 200 204 221 240 236 248 252 253 250 248 246 179 225 262 251 264 264 252 252 248 247 249 196 144 207 222 214 213 212 210 206 200 202 200 197 205
323 321 323 322 321 321 320 318 316 318 329 331 228 250 327 17 6 356 320 272 248 239 248 250 249 252 250 239 215 16 300 229 202 168 158 174 183 185 176 180 200 192 176 175 154 168 204 225 227 216 204 177 178 195 207 220 233 238 243 252 254 252 255 215 220 236 220 242 261 255 256 252 248 250 237 209 229 237 225 219 218 216 215 208 203 197 188 195
321 322 323 322 322 321 315 314 317 315 296 260 265 263 330 21 3 323 271 282 277 231 226 235 235 234 232 234 219 210 238 235 218 185 167 180 196 195 181 187 206 193 171 188 197 197 204 225 221 189 162 175 178 189 201 213 228 231 238 245 246 233 243 231 189 183 221 253 271 277 273 262 253 251 247 232 221 229 227 225 225 223 224 218 208 199 191 191
322 322 322 322 321 317 315 315 316 286 235 275 277 264 304 346 343 316 258 272 277 220 203 213 222 228 220 215 189 194 214 224 226 196 169 182 194 190 197 197 202 202 190 200 210 217 216 159 170 174 179 197 193 190 203 221 232 229 234 246 258 254 254 266 243 225 257 250 248 263 269 254 240 238 237 207 187 208 213 219 225 224 230 228 216 204 196 195
322 321 322 324 320 319 320 317 307 222 270 287 266 236 280 327 334 309 267 267 244 182 160 175 193 199 164 135 165 188 212 218 225 203 172 188 193 178 198 202 202 209 203 202 210 229 222 113 146 193 191 202 208 204 211 224 243 238 225 232 256 264 261 264 258 253 262 240 207 219 251 246 219 223 230 200 187 204 195 204 222 222 225 225 219 208 196 196
321 320 323 322 321 327 329 311 25 312 296 279 174 150 344 322 320 285 264 265 211 154 149 181 183 148 149 157 163 180 209 209 215 199 179 194 200 191 197 186 200 223 209 200 210 239 213 142 174 200 190 203 216 221 217 217 243 253 212 215 242 253 254 252 241 227 250 250 160 198 249 260 210 211 222 208 205 207 189 202 225 224 222 219 214 206 195 194
320 320 321 320 325 336 341 316 325 310 293 121 132 172 321 319 307 246 248 243 195 126 135 168 128 121 147 164 166 180 185 145 175 188 189 196 194 202 213 184 192 224 200 183 206 223 199 177 181 189 192 205 213 223 209 205 237 254 100 201 244 243 238 232 224 224 245 304 156 201 240 265 254 229 212 209 218 213 196 214 232 227 226 219 208 199 193 188
318 318 320 318 319 325 308 297 307 294 304 62 133 280 319 316 272 217 252 241 151 114 140 114 95 128 121 156 184 203 352 62 183 179 182 192 189 198 218 204 201 200 174 184 208 169 182 197 194 197 210 214 215 224 194 196 234 247 87 271 264 249 235 223 217 224 231 256 224 208 217 250 259 232 197 214 225 206 178 242 249 227 223 216 204 195 189 182
318 317 317 317 317 314 285 273 273 262 291 64 292 313 316 285 225 223 258 258 154 140 95 120 139 161 141 162 200 220 251 291 212 144 162 184 193 211 230 223 216 198 179 204 229 145 164 208 208 208 219 221 225 230 202 202 229 239 102 250 257 237 232 217 219 223 202 234 247 212 201 236 261 234 200 211 220 189 124 326 313 210 207 196 191 187 182 175
316 314 314 317 320 321 284 258 254 254 244 254 314 327 294 214 221 228 218 229 162 122 102 163 158 163 189 201 203 206 218 235 95 141 164 172 186 207 247 241 223 201 182 210 233 177 117 145 224 221 224 229 235 228 207 217 226 157 209 224 212 201 205 208 223 230 213 230 242 209 196 232 259 247 145 120 113 15 325 291 356 181 190 180 174 171 171 169
313 311 311 307 303 297 281 266 260 236 213 267 325 316 230 198 242 239 182 157 246 131 148 175 159 221 269 268 215 184 201 211 147 159 169 166 180 194 200 198 205 200 188 206 225 208 176 179 189 210 220 235 240 205 190 219 219 217 234 225 207 193 189 206 209 211 232 234 220 191 198 233 249 241 74 71 63 10 319 302 292 215 179 166 155 152 156 158
309 306 301 288 271 254 247 234 72 133 193 308 323 258 214 200 226 234 155 163 235 118 111 123 321 307 298 280 223 179 190 194 175 175 177 176 180 189 197 191 181 192 199 198 203 202 203 210 204 199 203 216 224 198 176 197 208 218 231 224 221 207 191 213 209 202 234 226 150 164 205 239 246 129 78 63 53 12 334 324 280 216 170 159 155 153 147 141
307 303 296 281 257 241 239 239 249 254 272 300 283 223 224 226 216 222 202 186 84 35 22 331 312 304 288 260 192 170 189 180 176 184 184 186 189 192 202 204 194 199 212 201 196 195 198 207 210 209 203 205 220 215 181 186 202 211 218 218 225 219 204 218 216 211 231 207 139 161 211 242 239 107 68 44 40 19 360 28 62 129 136 139 142 144 141 144
307 301 289 272 245 237 237 238 244 253 266 264 227 202 218 224 192 100 226 162 42 359 320 318 310 291 259 251 102 158 204 175 170 182 182 188 200 197 199 207 204 208 216 200 202 211 212 206 198 205 203 192 209 226 221 206 200 205 218 228 233 235 229 232 235 235 237 212 148 159 201 248 240 119 77 50 51 42 34 63 72 79 107 121 128 134 139 155
314 303 279 253 240 240 230 220 218 219 231 231 211 199 208 213 176 152 197 32 26 336 313 310 295 265 208 162 110 184 259 186 175 187 188 190 203 201 196 198 200 206 208 197 197 211 227 236 184 188 192 185 199 217 230 238 217 195 213 233 236 242 240 240 284 326 279 248 182 175 222 265 144 124 114 93 68 62 63 77 84 89 106 121 129 134 140 154
321 300 249 216 223 235 212 204 196 199 224 225 204 204 210 230 21 108 47 4 1 342 317 288 246 249 212 168 155 153 248 214 183 189 193 195 205 205 201 194 192 203 209 201 184 189 222 231 157 168 190 202 205 206 209 225 226 179 205 224 222 250 256 239 181 95 286 261 218 191 236 195 134 150 135 105 72 74 84 90 106 112 114 127 135 138 145 148
315 276 191 134 173 191 185 183 179 192 225 226 208 211 210 76 32 33 31 355 335 337 312 284 161 294 256 190 162 132 167 196 185 197 199 191 201 203 204 196 188 203 212 215 216 206 231 226 156 176 198 197 204 213 207 220 229 199 210 214 183 216 259 248 234 199 213 244 219 201 241 219 178 193 146 123 78 74 89 97 117 130 130 134 126 123 138 142
299 268 119 78 45 151 160 164 173 194 223 222 211 216 246 168 77 16 3 347 317 304 295 283 12 334 303 228 176 93 193 204 187 204 206 189 185 193 204 198 190 205 214 222 226 196 234 236 171 179 191 170 166 214 211 211 224 235 264 248 203 217 225 215 229 234 224 238 232 211 231 234 210 178 157 158 108 82 92 101 109 113 114 117 109 101 113 129
271 234 130 51 23 127 140 154 179 213 217 212 208 178 199 189 137 212 294 316 285 281 287 285 284 284 297 306 317 48 323 253 192 209 217 198 184 190 221 206 192 205 214 223 224 186 220 241 194 169 169 160 173 206 210 194 203 228 259 250 231 242 242 217 217 232 237 239 235 219 218 231 64 117 139 144 118 105 106 111 107 93 91 100 108 109 116 129
253 213 112 55 134 136 133 165 206 224 204 210 227 167 162 179 172 204 234 265 265 264 283 296 261 262 300 312 312 354 324 300 215 222 227 196 183 193 224 209 189 189 199 219 225 208 204 228 213 158 155 180 193 203 219 209 195 207 222 220 214 217 242 247 225 228 253 253 238 238 221 133 56 67 103 108 117 123 116 112 101 85 88 92 96 105 115 122
242 192 107 87 164 152 163 208 209 214 201 204 246 160 158 289 247 203 186 233 260 256 278 290 272 279 306 303 300 339 306 283 228 227 222 200 205 208 145 177 193 170 177 208 217 214 202 212 223 193 177 203 195 134 2 296 246 225 223 221 218 211 215 233 225 211 234 254 255 262 247 109 71 35 81 114 136 139 119 109 95 79 84 89 80 61 55 59
229 177 103 125 169 187 240 215 152 220 219 164 121 153 121 308 266 232 184 209 242 234 236 267 269 276 289 289 302 322 305 280 235 229 227 205 204 123 53 10 274 186 193 204 199 198 205 218 225 222 218 202 122 90 61 356 314 259 249 248 237 221 213 229 233 207 210 228 241 259 256 110 89 63 89 102 102 88 81 90 91 78 68 72 67 53 51 48
199 130 95 136 163 257 262 191 141 208 188 96 61 183 160 253 241 227 203 211 232 226 219 243 259 262 266 302 310 306 308 291 256 243 241 199 112 53 35 10 253 209 214 214 180 146 162 227 229 227 227 201 124 122 139 145 234 231 224 250 263 246 235 247 262 255 223 221 223 244 234 138 115 106 90 83 78 72 62 69 84 81 66 62 62 59 58 52
158 113 119 149 199 283 267 189 158 177 117 104 186 163 164 243 252 244 236 227 226 238 248 251 252 267 281 299 295 294 305 286 252 253 272 213 107 51 37 55 206 210 208 260 206 158 184 222 219 217 213 199 189 188 181 186 215 222 179 154 287 272 249 257 260 245 243 228 218 246 243 128 125 118 104 96 87 77 64 63 75 81 73 64 63 64 60 55
156 134 137 155 216 260 266 13 334 141 109 134 162 135 164 190 192 274 270 243 286 296 277 273 296 291 286 281 272 273 271 254 250 276 275 190 111 63 47 63 78 86 9 350 289 176 208 235 217 227 222 206 207 205 199 200 192 175 137 129 351 277 236 243 237 231 237 210 207 241 235 121 125 114 106 109 101 88 78 74 72 69 68 66 65 66 66 65
173 160 152 155 185 231 125 39 296 271 132 159 147 112 234 152 129 149 255 215 168 315 277 300 317 276 269 284 266 254 242 230 246 269 262 171 104 72 50 67 65 35 19 13 40 164 197 224 249 280 268 238 248 98 35 290 185 163 146 122 67 329 259 250 233 234 241 216 222 229 148 141 147 127 113 113 109 102 95 86 78 70 70 75 77 76 76 75
199 181 164 164 171 189 179 174 239 319 124 215 189 103 71 136 137 150 211 224 89 10 236 286 345 274 263 296 261 246 257 227 226 255 325 346 100 112 75 76 57 14 358 26 38 22 186 177 338 359 23 18 0 31 43 14 139 128 108 91 57 25 254 237 233 263 293 238 231 169 139 145 151 138 125 122 118 113 106 95 89 84 79 82 87 85 83 80
227 162 118 334 243 170 169 139 109 115 129 149 222 117 123 130 146 150 168 202 156 309 240 192 34 17 17 328 260 243 274 234 209 50 16 358 50 150 144 91 66 5 343 50 41 336 216 192 119 52 40 30 23 36 55 73 89 87 79 66 44 41 22 234 246 333 323 259 225 160 141 134 131 130 119 112 113 109 104 96 90 88 83 82 83 81 78 72
169 133 106 329 312 98 79 82 129 147 124 107 143 128 98 111 118 115 123 203 178 84 315 191 72 38 38 4 274 253 344 300 172 36 24 9 13 243 199 106 71 9 4 37 22 346 269 200 140 130 76 30 23 30 51 111 112 92 70 55 47 55 58 47 20 358 326 280 149 137 124 104 103 114 104 102 106 102 100 96 88 81 74 75 80 79 74 63
217 137 126 167 128 94 92 121 178 162 136 227 174 112 81 117 101 97 89 254 164 90 356 55 64 33 36 35 40 69 37 11 352 1 354 345 355 6 41 108 40 352 28 50 7 330 314 147 152 160 137 73 23 41 75 149 129 103 76 51 39 63 64 47 31 10 354 103 117 124 116 96 88 105 106 112 115 104 95 86 82 75 66 70 76 78 75 67
338 15 231 179 129 102 149 147 196 179 140 182 154 111 117 89 54 26 121 65 25 45 34 25 27 358 108 50 51 61 37 1 336 327 318 308 323 354 20 60 341 335 53 84 15 309 325 110 172 212 188 149 158 160 151 161 149 122 85 46 26 48 72 55 48 7 329 139 139 142 136 128 130 119 111 107 103 98 88 79 78 74 67 67 70 72 72 69
184 184 241 228 130 139 213 149 184 209 111 80 70 75 21 55 41 314 195 139 147 48 43 15 343 299 246 238 5 32 13 342 327 320 299 274 276 309 333 340 336 344 46 147 181 237 232 170 185 222 204 157 158 160 150 170 182 155 80 31 10 20 64 76 69 19 342 194 161 164 133 129 134 128 115 102 91 84 78 74 78 78 75 72 71 70 69 68